Hourly Data Report for November 09, 2020

OTTAWA INTL A
ONTARIO
Current Station Operator: NAVCAN

45°19'00.000" N
75°40'00.000" W
114.90 m
6106001
71628
YOW

Download Data

Hourly Data (November 2020)
Hourly Data Report for November 9, 2020
TIME Temp Definition
°C
Dew Point Definition
°C
Rel Hum Definition
%
Wind Dir Definition
10's deg

Wind Spd Definition
km/h
Visibility Definition
km
Stn Press Definition
kPa
Hmdx Definition


Wind Chill Definition


Weather Definition


00:00 7.6 6.2 90 19 9 24.1 101.18     LegendNANA
01:00 7.8 6.4 91 20 12 24.1 101.16     Clear
02:00 8.4 6.7 89 18 13 24.1 101.15     LegendNANA
03:00 7.2 6.0 92 19 11 24.1 101.16     LegendNANA
04:00 6.3 5.2 93 20 10 24.1 101.18     Clear
05:00 7.3 6.0 91 22 11 24.1 101.20     LegendNANA
06:00 8.2 6.5 89 17 7 24.1 101.19     LegendNANA
07:00 8.3 6.4 88 21 5 16.1 101.21     Mostly Cloudy
08:00 8.8 6.8 88 16 5 16.1 101.19     LegendNANA
09:00 11.2 7.9 80 17 10 24.1 101.20     LegendNANA
10:00 14.3 8.4 68 18 10 24.1 101.13     Mainly Clear
11:00 18.3 9.0 54 20 13 24.1 101.07     LegendNANA
12:00 20.4 10.0 51 18 13 24.1 100.98     LegendNANA
13:00 20.5 9.1 48 19 17 24.1 100.90     Mostly Cloudy
14:00 22.1 9.2 43 19 16 24.1 100.84     LegendNANA
15:00 21.2 9.6 47 20 18 24.1 100.81     LegendNANA
16:00 19.7 9.2 50 18 13 24.1 100.78     Mostly Cloudy
17:00 17.3 8.7 56 18 12 24.1 100.79     LegendNANA
18:00 17.0 8.1 55 19 10 24.1 100.80     LegendNANA
19:00 15.5 7.3 58 19 9 24.1 100.75     Mostly Cloudy
20:00 14.9 6.5 57 17 8 22.5 100.71     LegendNANA
21:00 13.8 6.5 61 18 10 24.1 100.68     LegendNANA
22:00 12.6 5.8 63 15 11 24.1 100.63     Mainly Clear
23:00 11.7 5.8 67 18 7 24.1 100.56     LegendNANA

Notes on Data Quality.

Legend

  • E = Estimated
  • M = Missing
  • NA = Not Available*
  • [empty] = Indicates an unobserved value
Date modified: